When you browse on this site, cookies collect data to enhance your experience and personalize the content and advertising you see.
Visit our Privacy Policy to learn more. By continuing to use the site, you agree to this use of cookies and data.
  • In Sweden
  • List of Countries
  • For 7 days
  • Water Temperature
  • Satellite Maps
  • Weather Map
  • Weather Widgets
  • user-avatar
    Login

    Hourly Weather Shalday

    Today, 22 April, Monday

    Time Temperature Precipitation Wind Pressure Humidity
    00:00 +4°C° 0 mm 1 mps 751 mmHg 61%
    01:00 +3°C° 0 mm 1 mps 751 mmHg 63%
    02:00 +3°C° 0 mm 1 mps 751 mmHg 66%
    03:00 +2°C° 0 mm 1 mps 751 mmHg 67%
    04:00 +2°C° 0 mm 1 mps 751 mmHg 69%
    05:00 +2°C° 0 mm 1 mps 751 mmHg 71%
    06:00 +4°C° 0 mm 1 mps 752 mmHg 63%
    07:00 +4°C° 0 mm 2 mps 752 mmHg 56%
    08:00 +6°C° 0 mm 2 mps 752 mmHg 48%
    09:00 +7°C° 0 mm 2 mps 752 mmHg 43%
    10:00 +8°C° 0 mm 2 mps 752 mmHg 39%
    11:00 +9°C° 0 mm 2 mps 752 mmHg 34%
    12:00 +10°C° 0 mm 2 mps 752 mmHg 33%
    13:00 +10°C° 0 mm 2 mps 752 mmHg 31%
    14:00 +12°C° 0 mm 1 mps 752 mmHg 29%
    15:00 +11°C° 0 mm 1 mps 752 mmHg 29%
    16:00 +11°C° 0 mm 1 mps 752 mmHg 29%
    17:00 +11°C° 0 mm 1 mps 752 mmHg 30%
    18:00 +10°C° 0 mm 1 mps 752 mmHg 31%
    19:00 +10°C° 0 mm 1 mps 752 mmHg 33%
    20:00 +9°C° 0 mm 1 mps 752 mmHg 35%
    21:00 +9°C° 0 mm 1 mps 752 mmHg 37%
    22:00 +8°C° 0 mm 1 mps 752 mmHg 38%
    23:00 +6°C° 0 mm 2 mps 752 mmHg 40%

    Tomorrow, 23 April, Tuesday

    Time Temperature Precipitation Wind Pressure Humidity
    00:00 +6°C° 0 mm 2 mps 751 mmHg 41%
    01:00 +5°C° 0 mm 2 mps 751 mmHg 43%
    02:00 +5°C° 0 mm 2 mps 751 mmHg 45%
    03:00 +6°C° 0 mm 1 mps 751 mmHg 47%
    04:00 +5°C° 0 mm 1 mps 751 mmHg 48%
    05:00 +5°C° 0 mm 1 mps 751 mmHg 49%
    06:00 +7°C° 0 mm 1 mps 751 mmHg 44%
    07:00 +8°C° 0 mm 1 mps 751 mmHg 39%
    08:00 +10°C° 0 mm 1 mps 751 mmHg 34%
    09:00 +10°C° 0 mm 2 mps 751 mmHg 32%
    10:00 +12°C° 0 mm 2 mps 750 mmHg 30%
    11:00 +12°C° 0 mm 3 mps 750 mmHg 28%
    12:00 +12°C° 0 mm 3 mps 750 mmHg 27%
    13:00 +13°C° 0 mm 3 mps 749 mmHg 26%
    14:00 +13°C° 0 mm 3 mps 749 mmHg 25%
    15:00 +14°C° 0 mm 2 mps 748 mmHg 26%
    16:00 +14°C° 0 mm 1 mps 748 mmHg 27%
    17:00 +14°C° 0 mm 1 mps 747 mmHg 28%
    18:00 +13°C° 0 mm 1 mps 747 mmHg 33%
    19:00 +12°C° 0 mm 2 mps 747 mmHg 37%
    20:00 +10°C° 0 mm 2 mps 747 mmHg 41%
    21:00 +9°C° 0.9 mm 2 mps 747 mmHg 50%
    22:00 +8°C° 0.9 mm 2 mps 747 mmHg 58%
    23:00 +7°C° 0.9 mm 2 mps 747 mmHg 66%

    Day after tomorrow, 24 April, Wednesday

    Time Temperature Precipitation Wind Pressure Humidity
    00:00 +7°C° 0.3 mm 2 mps 747 mmHg 69%
    01:00 +7°C° 0.3 mm 2 mps 746 mmHg 73%
    02:00 +6°C° 0.3 mm 2 mps 746 mmHg 76%
    03:00 +7°C° 0 mm 1 mps 746 mmHg 79%
    04:00 +6°C° 0 mm 1 mps 746 mmHg 81%
    05:00 +4°C° 0 mm 0 mps 747 mmHg 84%
    06:00 +7°C° 0 mm 1 mps 747 mmHg 75%
    07:00 +8°C° 0 mm 2 mps 747 mmHg 66%
    08:00 +10°C° 0 mm 3 mps 747 mmHg 56%
    09:00 +11°C° 0 mm 3 mps 747 mmHg 49%
    10:00 +12°C° 0 mm 3 mps 747 mmHg 42%
    11:00 +14°C° 0 mm 3 mps 747 mmHg 35%
    12:00 +14°C° 0 mm 3 mps 746 mmHg 34%
    13:00 +16°C° 0 mm 3 mps 746 mmHg 32%
    14:00 +17°C° 0 mm 3 mps 745 mmHg 30%
    15:00 +16°C° 0 mm 3 mps 745 mmHg 32%
    16:00 +15°C° 0 mm 4 mps 745 mmHg 33%
    17:00 +15°C° 0 mm 4 mps 745 mmHg 35%
    18:00 +14°C° 0 mm 3 mps 745 mmHg 38%
    19:00 +13°C° 0 mm 3 mps 745 mmHg 41%
    20:00 +12°C° 0 mm 2 mps 745 mmHg 45%
    21:00 +12°C° 0 mm 2 mps 745 mmHg 45%
    22:00 +12°C° 0 mm 2 mps 744 mmHg 46%
    23:00 +10°C° 0 mm 2 mps 744 mmHg 47%

    25 April, Thursday

    Time Temperature Precipitation Wind Pressure Humidity
    00:00 +10°C° 0 mm 3 mps 744 mmHg 46%
    01:00 +9°C° 0 mm 3 mps 743 mmHg 46%
    02:00 +9°C° 0 mm 3 mps 743 mmHg 46%
    03:00 +9°C° 0 mm 3 mps 743 mmHg 45%
    04:00 +9°C° 0 mm 3 mps 743 mmHg 44%
    05:00 +9°C° 0 mm 3 mps 742 mmHg 43%
    06:00 +10°C° 0 mm 4 mps 742 mmHg 40%
    07:00 +12°C° 0 mm 5 mps 742 mmHg 37%
    08:00 +13°C° 0 mm 6 mps 742 mmHg 34%
    09:00 +14°C° 0 mm 6 mps 742 mmHg 32%
    10:00 +15°C° 0 mm 7 mps 742 mmHg 30%
    11:00 +16°C° 0 mm 7 mps 742 mmHg 28%
    12:00 +16°C° 0 mm 7 mps 742 mmHg 30%
    13:00 +16°C° 0 mm 8 mps 741 mmHg 31%
    14:00 +16°C° 0 mm 8 mps 741 mmHg 33%
    15:00 +16°C° 0 mm 8 mps 741 mmHg 37%
    16:00 +15°C° 0 mm 7 mps 741 mmHg 41%
    17:00 +14°C° 0 mm 7 mps 741 mmHg 46%
    18:00 +13°C° 0.1 mm 6 mps 742 mmHg 49%
    19:00 +11°C° 0.1 mm 6 mps 742 mmHg 52%
    20:00 +12°C° 0.1 mm 5 mps 743 mmHg 56%
    21:00 +10°C° 0 mm 5 mps 743 mmHg 57%
    22:00 +10°C° 0 mm 4 mps 743 mmHg 59%
    23:00 +9°C° 0 mm 3 mps 744 mmHg 61%

    26 April, Friday

    Time Temperature Precipitation Wind Pressure Humidity
    00:00 +9°C° 0 mm 3 mps 744 mmHg 64%
    01:00 +8°C° 0 mm 3 mps 744 mmHg 67%
    02:00 +7°C° 0 mm 2 mps 743 mmHg 71%
    03:00 +8°C° 0 mm 3 mps 743 mmHg 71%
    04:00 +7°C° 0 mm 4 mps 743 mmHg 72%
    05:00 +7°C° 0 mm 5 mps 743 mmHg 73%
    06:00 +9°C° 0 mm 7 mps 743 mmHg 63%
    07:00 +11°C° 0 mm 9 mps 742 mmHg 54%
    08:00 +12°C° 0 mm 10 mps 742 mmHg 44%
    09:00 +13°C° 0 mm 11 mps 742 mmHg 40%
    10:00 +14°C° 0 mm 11 mps 742 mmHg 36%
    11:00 +15°C° 0 mm 12 mps 742 mmHg 32%
    12:00 +14°C° 0 mm 12 mps 742 mmHg 34%
    13:00 +14°C° 0 mm 12 mps 742 mmHg 37%
    14:00 +13°C° 0 mm 11 mps 742 mmHg 39%
    15:00 +13°C° 0 mm 10 mps 742 mmHg 44%
    16:00 +12°C° 0 mm 8 mps 742 mmHg 49%
    17:00 +11°C° 0 mm 6 mps 743 mmHg 54%
    18:00 +9°C° 0.2 mm 5 mps 743 mmHg 60%
    19:00 +8°C° 0.2 mm 5 mps 743 mmHg 67%
    20:00 +7°C° 0.2 mm 4 mps 743 mmHg 73%
    21:00 +6°C° 0.8 mm 4 mps 743 mmHg 74%
    22:00 +5°C° 0.8 mm 5 mps 743 mmHg 76%
    23:00 +3°C° 0.8 mm 5 mps 743 mmHg 77%

    27 April, Saturday

    Time Temperature Precipitation Wind Pressure Humidity
    00:00 +2°C° 0.8 mm 5 mps 743 mmHg 78%
    01:00 +2°C° 0.8 mm 5 mps 743 mmHg 80%
    02:00 +1°C° 0.8 mm 5 mps 744 mmHg 81%
    03:00 +1°C° 0.1 mm 5 mps 744 mmHg 81%
    04:00 +1°C° 0.1 mm 4 mps 745 mmHg 81%
    05:00 0°C° 0.1 mm 4 mps 746 mmHg 82%
    06:00 +1°C° 0 mm 4 mps 747 mmHg 77%
    07:00 +1°C° 0 mm 4 mps 748 mmHg 73%
    08:00 +2°C° 0 mm 3 mps 748 mmHg 69%
    09:00 +3°C° 0 mm 3 mps 749 mmHg 63%
    10:00 +5°C° 0 mm 2 mps 749 mmHg 57%
    11:00 +6°C° 0 mm 2 mps 750 mmHg 51%
    12:00 +8°C° 0 mm 1 mps 749 mmHg 46%
    13:00 +9°C° 0 mm 1 mps 749 mmHg 41%
    14:00 +9°C° 0 mm 0 mps 749 mmHg 36%
    15:00 +10°C° 0 mm 1 mps 749 mmHg 35%
    16:00 +10°C° 0 mm 1 mps 749 mmHg 33%
    17:00 +9°C° 0 mm 2 mps 749 mmHg 32%
    18:00 +8°C° 0 mm 2 mps 750 mmHg 35%
    19:00 +8°C° 0 mm 2 mps 750 mmHg 38%
    20:00 +7°C° 0 mm 2 mps 750 mmHg 41%
    21:00 +6°C° 0 mm 2 mps 750 mmHg 42%
    22:00 +5°C° 0 mm 3 mps 750 mmHg 42%
    23:00 +5°C° 0 mm 3 mps 750 mmHg 42%
    Show more